This is the latest recevied weather packets stored in our database for station/object SQ9RHX-13. If no packets are shown the sender has not sent any weather packets the latest 10 day(s).
| Time | Temp. | Humidity | Pressure | Rain* | Wind** | Luminosity | Snow |
|---|---|---|---|---|---|---|---|
| 1778069405 | 22.78° C | 46% | 1009.6 hPa | 0 mm | - | 380 W/m² | - |
| 1778069103 | 22.78° C | 46% | 1009.6 hPa | 0 mm | - | 596 W/m² | - |
| 1778068803 | 22.22° C | 47% | 1009.8 hPa | 0 mm | - | 530 W/m² | - |
| 1778068503 | 22.22° C | 47% | 1009.7 hPa | 0 mm | - | 404 W/m² | - |
| 1778068203 | 22.78° C | 46% | 1009.7 hPa | 0 mm | - | 293 W/m² | - |
| 1778067906 | 22.22° C | 46% | 1009.7 hPa | 0 mm | - | 513 W/m² | - |
| 1778067603 | 22.22° C | 47% | 1009.7 hPa | 0 mm | - | 471 W/m² | - |
| 1778067303 | 22.22° C | 48% | 1009.9 hPa | 0 mm | - | 285 W/m² | - |
| 1778067004 | 21.67° C | 49% | 1009.8 hPa | 0 mm | - | 369 W/m² | - |
| 1778066703 | 21.67° C | 49% | 1009.7 hPa | 0 mm | - | 498 W/m² | - |
| 1778066403 | 21.67° C | 49% | 1009.9 hPa | 0 mm | - | 605 W/m² | - |
| 1778066104 | 21.67° C | 49% | 1009.8 hPa | 0 mm | - | 402 W/m² | - |
| 1778065803 | 21.67° C | 49% | 1009.8 hPa | 0 mm | - | 366 W/m² | - |
| 1778065506 | 21.67° C | 50% | 1009.8 hPa | 0 mm | - | 624 W/m² | - |
| 1778065202 | 21.11° C | 51% | 1009.8 hPa | 0 mm | - | 510 W/m² | - |
| 1778064902 | 21.11° C | 51% | 1009.9 hPa | 0 mm | - | 265 W/m² | - |
| 1778064605 | 21.11° C | 52% | 1010 hPa | 0 mm | - | 312 W/m² | - |
| 1778064305 | 20.56° C | 52% | 1009.9 hPa | 0 mm | - | 178 W/m² | - |
| 1778064003 | 21.11° C | 51% | 1009.8 hPa | 0 mm | - | 171 W/m² | - |
| 1778063703 | 21.67° C | 50% | 1009.9 hPa | 0 mm | - | 146 W/m² | - |
| 1778063403 | 21.11° C | 52% | 1009.9 hPa | 0 mm | - | 493 W/m² | - |
| 1778063103 | 20.56° C | 53% | 1009.7 hPa | 0 mm | - | 198 W/m² | - |
| 1778062804 | 20.56° C | 53% | 1010 hPa | 0 mm | - | 288 W/m² | - |
| 1778062505 | 21.11° C | 51% | 1010.1 hPa | 0 mm | - | 248 W/m² | - |
| 1778062203 | 21.11° C | 51% | 1009.9 hPa | 0 mm | - | 673 W/m² | - |
* Rain latest hour (hover to see other rain measurements)
** Current wind speed in m/s (hover to see current wind gust speed)